QPF
0.00 0.00 0.00 0.02 0.06 0.12 0.09 0.06 0.05 0.03 0.04 0.03 0.02 0.01 0.03 0.06 0.09 0.13 0.11 0.06 0.02 0.00 0.00 0.00 0.01 0.00 0.00 0.00 0.00 0.01 0.01 0.00 0.01 0.00 0.00 0.00 0.00 0.01 0.01 0.01 0.01 0.01 0.01 0.01 0.01 0.01 0.01 0.01 0.01
0.00 0.00 0.01 0.02 0.08 0.10 0.04 0.04 0.05 0.06 0.03 0.02 0.02 0.02 0.06 0.10 0.05 0.05 0.07 0.06 0.02 0.00 0.00 0.00 0.00 0.01 0.00 0.00 0.00 0.01 0.01 0.00 0.01 0.00 0.00 0.00 0.00 0.00 0.01 0.01 0.01 0.01 0.01 0.01 0.01 0.01 0.01 0.01 0.01
0.00 0.00 0.00 0.02 0.05 0.05 0.03 0.02 0.02 0.02 0.01 0.01 0.02 0.03 0.08 0.11 0.04 0.03 0.06 0.08 0.04 0.01 0.00 0.00 0.01 0.00 0.00 0.00 0.01 0.01 0.01 0.01 0.01 0.01 0.00 0.00 0.00 0.01 0.01 0.01 0.01 0.01 0.01 0.01 0.00 0.01 0.01 0.01 0.01
0.00 0.00 0.01 0.02 0.02 0.01 0.00 0.01 0.02 0.01 0.01 0.01 0.02 0.05 0.09 0.07 0.03 0.05 0.09 0.11 0.06 0.01 0.00 0.00 0.01 0.00 0.00 0.00 0.01 0.01 0.01 0.01 0.01 0.01 0.00 0.01 0.00 0.01 0.01 0.01 0.00 0.00 0.00 0.01 0.00 0.00 0.00 0.01 0.02
0.00 0.00 0.01 0.01 0.01 0.00 0.00 0.01 0.01 0.01 0.02 0.03 0.05 0.07 0.10 0.10 0.07 0.08 0.11 0.12 0.10 0.04 0.01 0.00 0.01 0.01 0.00 0.00 0.00 0.01 0.01 0.01 0.01 0.00 0.00 0.00 0.00 0.01 0.00 0.00 0.00 0.00 0.00 0.00 0.00 0.00 0.00 0.01 0.02
0.00 0.00 0.01 0.01 0.00 0.00 0.01 0.01 0.00 0.00 0.02 0.04 0.06 0.09 0.15 0.13 0.10 0.13 0.24 0.21 0.17 0.09 0.02 0.01 0.01 0.01 0.00 0.00 0.00 0.01 0.01 0.00 0.01 0.00 0.00 0.00 0.00 0.01 0.00 0.00 0.00 0.00 0.00 0.00 0.00 0.00 0.01 0.01 0.01
0.00 0.00 0.00 0.00 0.00 0.00 0.01 0.01 0.01 0.01 0.02 0.05 0.07 0.10 0.13 0.13 0.12 0.15 0.26 0.25 0.21 0.09 0.04 0.04 0.01 0.00 0.01 0.01 0.01 0.01 0.01 0.00 0.00 0.01 0.01 0.01 0.01 0.01 0.01 0.01 0.00 0.00 0.00 0.00 0.00 0.00 0.00 0.01 0.01
0.00 0.00 0.00 0.00 0.00 0.01 0.01 0.01 0.01 0.01 0.02 0.04 0.07 0.15 0.22 0.16 0.13 0.16 0.20 0.30 0.33 0.18 0.09 0.06 0.04 0.02 0.01 0.01 0.01 0.01 0.01 0.01 0.01 0.01 0.01 0.01 0.02 0.01 0.01 0.01 0.01 0.00 0.00 0.00 0.00 0.00 0.00 0.00 0.01
0.00 0.00 0.00 0.00 0.00 0.00 0.01 0.01 0.01 0.01 0.02 0.03 0.12 0.21 0.18 0.18 0.13 0.13 0.19 0.32 0.46 0.39 0.16 0.10 0.10 0.06 0.04 0.02 0.02 0.02 0.02 0.02 0.02 0.02 0.02 0.02 0.02 0.02 0.02 0.01 0.01 0.01 0.01 0.00 0.00 0.00 0.00 0.00 0.01
0.00 0.00 0.00 0.00 0.00 0.00 0.01 0.00 0.00 0.01 0.02 0.04 0.07 0.15 0.16 0.20 0.14 0.11 0.15 0.22 0.36 0.45 0.19 0.09 0.08 0.08 0.06 0.04 0.03 0.03 0.01 0.01 0.01 0.02 0.02 0.02 0.03 0.03 0.03 0.02 0.02 0.01 0.01 0.01 0.00 0.00 0.01 0.01 0.01
0.00 0.00 0.00 0.01 0.00 0.00 0.00 0.00 0.00 0.00 0.01 0.04 0.07 0.17 0.19 0.15 0.12 0.11 0.13 0.20 0.19 0.27 0.18 0.09 0.07 0.07 0.08 0.07 0.04 0.04 0.02 0.01 0.01 0.01 0.01 0.03 0.03 0.03 0.03 0.03 0.03 0.02 0.01 0.01 0.01 0.01 0.01 0.01 0.02
0.00 0.00 0.00 0.00 0.00 0.00 0.00 0.00 0.00 0.00 0.03 0.03 0.02 0.09 0.16 0.13 0.14 0.15 0.13 0.18 0.19 0.22 0.25 0.16 0.10 0.08 0.08 0.07 0.05 0.05 0.03 0.02 0.02 0.02 0.02 0.03 0.02 0.03 0.03 0.03 0.03 0.02 0.01 0.01 0.01 0.01 0.01 0.02 0.04
0.00 0.00 0.00 0.00 0.00 0.00 0.00 0.00 0.00 0.01 0.02 0.01 0.02 0.04 0.08 0.11 0.14 0.18 0.17 0.18 0.24 0.27 0.29 0.23 0.14 0.10 0.11 0.12 0.09 0.05 0.04 0.02 0.02 0.02 0.02 0.02 0.02 0.02 0.02 0.03 0.02 0.02 0.02 0.02 0.01 0.01 0.01 0.02 0.05
0.00 0.00 0.00 0.00 0.00 0.00 0.00 0.00 0.00 0.01 0.02 0.01 0.01 0.03 0.07 0.12 0.12 0.18 0.25 0.28 0.30 0.35 0.32 0.23 0.15 0.12 0.10 0.12 0.13 0.08 0.04 0.03 0.02 0.02 0.02 0.01 0.02 0.02 0.02 0.01 0.02 0.02 0.02 0.02 0.02 0.02 0.01 0.01 0.02
0.00 0.00 0.00 0.00 0.01 0.01 0.01 0.01 0.01 0.02 0.03 0.01 0.01 0.02 0.04 0.09 0.16 0.25 0.36 0.43 0.35 0.42 0.32 0.27 0.18 0.12 0.10 0.08 0.09 0.07 0.05 0.03 0.02 0.02 0.02 0.02 0.03 0.02 0.01 0.01 0.02 0.02 0.02 0.01 0.02 0.03 0.02 0.01 0.01
0.00 0.00 0.01 0.01 0.01 0.01 0.02 0.03 0.01 0.02 0.02 0.02 0.01 0.02 0.05 0.10 0.18 0.27 0.27 0.37 0.35 0.40 0.34 0.30 0.20 0.14 0.12 0.10 0.10 0.07 0.06 0.05 0.03 0.03 0.03 0.03 0.02 0.02 0.01 0.01 0.01 0.02 0.03 0.02 0.01 0.01 0.02 0.01 0.01
0.00 0.01 0.01 0.01 0.02 0.01 0.01 0.01 0.01 0.02 0.02 0.02 0.02 0.04 0.08 0.11 0.15 0.18 0.18 0.23 0.30 0.32 0.38 0.35 0.26 0.16 0.13 0.11 0.11 0.10 0.08 0.09 0.06 0.04 0.03 0.02 0.01 0.01 0.01 0.01 0.02 0.03 0.03 0.02 0.01 0.01 0.00 0.01 0.01
0.00 0.00 0.01 0.02 0.01 0.01 0.01 0.01 0.03 0.03 0.02 0.02 0.03 0.05 0.06 0.08 0.11 0.12 0.14 0.20 0.28 0.32 0.42 0.44 0.29 0.18 0.15 0.12 0.10 0.09 0.07 0.08 0.06 0.03 0.03 0.01 0.01 0.01 0.00 0.01 0.02 0.02 0.01 0.01 0.01 0.01 0.00 0.00 0.01
0.00 0.00 0.01 0.01 0.01 0.01 0.01 0.02 0.03 0.06 0.05 0.03 0.04 0.07 0.08 0.10 0.14 0.18 0.14 0.14 0.23 0.36 0.42 0.43 0.29 0.17 0.15 0.12 0.07 0.06 0.05 0.05 0.04 0.03 0.02 0.01 0.01 0.01 0.01 0.01 0.01 0.01 0.01 0.00 0.00 0.01 0.01 0.01 0.00
0.00 0.01 0.00 0.00 0.01 0.01 0.01 0.02 0.04 0.08 0.07 0.04 0.04 0.05 0.06 0.10 0.14 0.21 0.17 0.12 0.14 0.27 0.35 0.38 0.30 0.18 0.14 0.10 0.07 0.06 0.06 0.06 0.05 0.03 0.02 0.01 0.01 0.01 0.01 0.01 0.01 0.01 0.01 0.01 0.01 0.01 0.01 0.01 0.00
0.00 0.01 0.00 0.01 0.01 0.01 0.02 0.04 0.05 0.07 0.10 0.05 0.02 0.02 0.02 0.04 0.10 0.15 0.11 0.08 0.08 0.12 0.19 0.23 0.24 0.19 0.13 0.09 0.06 0.07 0.06 0.06 0.04 0.02 0.02 0.01 0.01 0.01 0.01 0.00 0.00 0.00 0.00 0.01 0.01 0.01 0.01 0.01 0.00
0.01 0.01 0.00 0.01 0.01 0.02 0.03 0.03 0.03 0.03 0.07 0.05 0.02 0.02 0.01 0.03 0.06 0.11 0.11 0.06 0.06 0.09 0.13 0.16 0.14 0.15 0.12 0.06 0.04 0.04 0.03 0.03 0.02 0.01 0.01 0.01 0.01 0.01 0.00 0.00 0.00 0.00 0.00 0.01 0.01 0.00 0.01 0.00 0.00
0.00 0.00 0.00 0.01 0.01 0.02 0.02 0.03 0.05 0.06 0.09 0.06 0.03 0.02 0.04 0.05 0.05 0.07 0.10 0.07 0.07 0.11 0.13 0.13 0.10 0.11 0.10 0.07 0.04 0.03 0.03 0.03 0.02 0.01 0.01 0.00 0.00 0.00 0.01 0.01 0.00 0.01 0.01 0.01 0.00 0.00 0.00 0.00 0.00
0.00 0.00 0.00 0.01 0.02 0.04 0.04 0.06 0.08 0.04 0.04 0.04 0.03 0.03 0.06 0.05 0.03 0.04 0.06 0.06 0.06 0.10 0.13 0.11 0.08 0.06 0.04 0.05 0.04 0.03 0.03 0.03 0.02 0.01 0.00 0.00 0.00 0.00 0.01 0.01 0.00 0.00 0.00 0.00 0.00 0.00 0.00 0.00 0.00
0.00 0.00 0.01 0.02 0.04 0.06 0.05 0.05 0.05 0.03 0.03 0.03 0.03 0.02 0.02 0.02 0.02 0.02 0.03 0.04 0.03 0.04 0.07 0.08 0.08 0.05 0.03 0.03 0.04 0.03 0.03 0.03 0.02 0.01 0.00 0.00 0.00 0.00 0.00 0.00 0.00 0.00 0.00 0.00 0.00 0.00 0.00 0.00 0.00
0.01 0.00 0.01 0.03 0.04 0.07 0.08 0.11 0.10 0.06 0.03 0.03 0.03 0.02 0.02 0.01 0.01 0.01 0.02 0.02 0.02 0.03 0.04 0.04 0.04 0.04 0.03 0.02 0.02 0.03 0.03 0.02 0.02 0.01 0.00 0.00 0.00 0.00 0.00 0.00 0.00 0.00 0.00 0.00 0.00 0.00 0.00 0.00 0.00
0.01 0.00 0.01 0.01 0.02 0.06 0.09 0.15 0.14 0.05 0.03 0.05 0.07 0.03 0.02 0.01 0.01 0.01 0.01 0.02 0.03 0.04 0.05 0.03 0.02 0.03 0.03 0.02 0.02 0.02 0.03 0.02 0.01 0.01 0.01 0.00 0.00 0.00 0.00 0.00 0.00 0.00 0.00 0.00 0.00 0.00 0.00 0.00 0.00
0.01 0.01 0.01 0.02 0.03 0.06 0.08 0.10 0.12 0.07 0.06 0.06 0.09 0.05 0.03 0.02 0.01 0.02 0.02 0.02 0.03 0.04 0.06 0.04 0.02 0.02 0.02 0.02 0.01 0.02 0.02 0.03 0.01 0.01 0.00 0.00 0.00 0.00 0.00 0.00 0.00 0.00 0.00 0.00 0.00 0.00 0.00 0.00 0.00
0.03 0.02 0.03 0.03 0.04 0.05 0.07 0.07 0.08 0.06 0.06 0.05 0.05 0.04 0.03 0.02 0.02 0.02 0.02 0.02 0.04 0.04 0.05 0.03 0.02 0.02 0.02 0.02 0.01 0.01 0.01 0.02 0.01 0.01 0.01 0.00 0.00 0.00 0.00 0.00 0.00 0.00 0.00 0.00 0.00 0.00 0.00 0.00 0.00
0.03 0.04 0.04 0.04 0.04 0.04 0.05 0.05 0.04 0.05 0.04 0.04 0.04 0.04 0.03 0.02 0.01 0.02 0.02 0.02 0.03 0.03 0.02 0.03 0.02 0.01 0.01 0.01 0.01 0.00 0.00 0.01 0.01 0.01 0.01 0.00 0.00 0.00 0.00 0.00 0.00 0.00 0.00 0.00 0.00 0.00 0.00 0.00 0.00
MSLP
1010.09 1011.31 1012.62 1013.76 1014.53 1014.79 1014.52 1013.83 1012.90 1011.97 1011.26 1010.91 1010.94 1011.30 1011.82 1012.35 1012.70 1012.80 1012.64 1012.32 1011.96 1011.70 1011.67 1011.90 1012.37 1012.98 1013.61 1014.13 1014.48 1014.63 1014.63 1014.53 1014.44 1014.43 1014.52 1014.72 1014.98 1015.24 1015.47 1015.61 1015.67 1015.67 1015.66 1015.66 1015.69 1015.76 1015.86 1015.96 1016.03
1010.61 1011.98 1013.33 1014.39 1014.97 1014.98 1014.43 1013.49 1012.36 1011.31 1010.55 1010.21 1010.29 1010.70 1011.27 1011.82 1012.19 1012.29 1012.15 1011.85 1011.54 1011.36 1011.40 1011.70 1012.23 1012.89 1013.54 1014.08 1014.45 1014.62 1014.65 1014.60 1014.56 1014.59 1014.73 1014.94 1015.20 1015.44 1015.62 1015.73 1015.76 1015.75 1015.74 1015.75 1015.81 1015.91 1016.03 1016.14 1016.22
1011.20 1012.65 1013.94 1014.84 1015.19 1014.92 1014.11 1012.96 1011.70 1010.62 1009.89 1009.63 1009.82 1010.33 1010.98 1011.57 1011.96 1012.07 1011.94 1011.66 1011.39 1011.25 1011.33 1011.67 1012.22 1012.87 1013.51 1014.03 1014.39 1014.57 1014.63 1014.63 1014.65 1014.74 1014.91 1015.15 1015.40 1015.62 1015.77 1015.84 1015.84 1015.83 1015.83 1015.87 1015.96 1016.09 1016.22 1016.34 1016.41
1011.80 1013.22 1014.37 1015.05 1015.12 1014.59 1013.57 1012.29 1011.00 1009.96 1009.36 1009.25 1009.59 1010.22 1010.96 1011.60 1012.01 1012.12 1012.00 1011.74 1011.49 1011.38 1011.49 1011.83 1012.36 1012.97 1013.56 1014.03 1014.35 1014.52 1014.59 1014.63 1014.70 1014.85 1015.06 1015.32 1015.57 1015.78 1015.90 1015.95 1015.95 1015.93 1015.95 1016.02 1016.14 1016.30 1016.45 1016.57 1016.64
1012.32 1013.60 1014.54 1014.94 1014.75 1014.00 1012.84 1011.52 1010.29 1009.41 1009.00 1009.09 1009.59 1010.35 1011.16 1011.83 1012.25 1012.36 1012.24 1012.00 1011.78 1011.69 1011.82 1012.15 1012.64 1013.19 1013.69 1014.08 1014.34 1014.47 1014.54 1014.60 1014.72 1014.91 1015.17 1015.46 1015.72 1015.92 1016.04 1016.08 1016.08 1016.08 1016.12 1016.22 1016.38 1016.55 1016.72 1016.84 1016.89
1012.67 1013.74 1014.40 1014.52 1014.08 1013.17 1011.96 1010.70 1009.62 1008.96 1008.78 1009.09 1009.77 1010.63 1011.48 1012.15 1012.54 1012.64 1012.52 1012.30 1012.12 1012.08 1012.24 1012.57 1013.02 1013.49 1013.90 1014.20 1014.37 1014.45 1014.49 1014.56 1014.71 1014.95 1015.25 1015.57 1015.85 1016.06 1016.18 1016.23 1016.24 1016.26 1016.33 1016.46 1016.64 1016.83 1017.00 1017.11 1017.14
1012.81 1013.60 1013.95 1013.80 1013.16 1012.15 1010.97 1009.85 1009.01 1008.60 1008.68 1009.20 1010.01 1010.93 1011.77 1012.40 1012.74 1012.80 1012.68 1012.50 1012.38 1012.41 1012.62 1012.97 1013.40 1013.81 1014.14 1014.34 1014.43 1014.45 1014.46 1014.53 1014.71 1014.98 1015.32 1015.67 1015.98 1016.20 1016.33 1016.39 1016.42 1016.46 1016.56 1016.71 1016.90 1017.10 1017.26 1017.36 1017.37
1012.72 1013.21 1013.26 1012.86 1012.07 1011.03 1009.95 1009.03 1008.44 1008.31 1008.62 1009.30 1010.19 1011.11 1011.90 1012.44 1012.70 1012.72 1012.60 1012.47 1012.44 1012.56 1012.84 1013.24 1013.68 1014.06 1014.33 1014.46 1014.48 1014.45 1014.44 1014.51 1014.71 1015.02 1015.39 1015.77 1016.10 1016.35 1016.49 1016.56 1016.60 1016.66 1016.76 1016.93 1017.13 1017.32 1017.48 1017.56 1017.56
1012.43 1012.62 1012.40 1011.80 1010.91 1009.91 1008.96 1008.26 1007.93 1008.04 1008.54 1009.33 1010.24 1011.10 1011.78 1012.20 1012.36 1012.33 1012.22 1012.15 1012.21 1012.44 1012.82 1013.29 1013.76 1014.15 1014.39 1014.48 1014.47 1014.42 1014.41 1014.50 1014.72 1015.06 1015.47 1015.88 1016.24 1016.49 1016.65 1016.72 1016.77 1016.83 1016.94 1017.10 1017.30 1017.49 1017.63 1017.70 1017.69
1012.00 1011.93 1011.49 1010.74 1009.81 1008.86 1008.07 1007.58 1007.47 1007.78 1008.41 1009.23 1010.09 1010.85 1011.38 1011.67 1011.72 1011.63 1011.53 1011.52 1011.68 1012.01 1012.50 1013.06 1013.58 1014.00 1014.25 1014.35 1014.35 1014.31 1014.33 1014.46 1014.72 1015.10 1015.55 1015.98 1016.36 1016.62 1016.78 1016.86 1016.90 1016.96 1017.06 1017.22 1017.41 1017.59 1017.73 1017.80 1017.78
1011.52 1011.25 1010.64 1009.80 1008.86 1008.00 1007.35 1007.04 1007.10 1007.53 1008.21 1009.01 1009.77 1010.39 1010.77 1010.90 1010.85 1010.72 1010.62 1010.66 1010.89 1011.33 1011.90 1012.53 1013.12 1013.58 1013.87 1014.02 1014.06 1014.08 1014.16 1014.35 1014.67 1015.10 1015.58 1016.05 1016.44 1016.72 1016.88 1016.96 1017.00 1017.05 1017.14 1017.29 1017.47 1017.66 1017.80 1017.87 1017.86
1011.09 1010.67 1009.95 1009.07 1008.16 1007.39 1006.86 1006.68 1006.84 1007.31 1007.98 1008.70 1009.34 1009.80 1010.03 1010.03 1009.89 1009.71 1009.61 1009.68 1009.97 1010.45 1011.08 1011.76 1012.39 1012.90 1013.26 1013.47 1013.60 1013.71 1013.88 1014.15 1014.55 1015.03 1015.55 1016.05 1016.45 1016.74 1016.92 1017.00 1017.05 1017.10 1017.19 1017.34 1017.52 1017.71 1017.86 1017.94 1017.96
1010.77 1010.26 1009.50 1008.62 1007.77 1007.07 1006.64 1006.53 1006.73 1007.19 1007.78 1008.39 1008.89 1009.19 1009.29 1009.19 1008.98 1008.76 1008.65 1008.72 1009.01 1009.50 1010.13 1010.82 1011.47 1012.02 1012.44 1012.75 1012.98 1013.21 1013.49 1013.86 1014.34 1014.88 1015.44 1015.96 1016.38 1016.69 1016.88 1016.99 1017.05 1017.12 1017.23 1017.38 1017.58 1017.77 1017.94 1018.05 1018.09
1010.63 1010.08 1009.32 1008.48 1007.70 1007.08 1006.70 1006.62 1006.80 1007.19 1007.68 1008.15 1008.50 1008.68 1008.67 1008.50 1008.25 1008.01 1007.88 1007.92 1008.17 1008.61 1009.19 1009.84 1010.48 1011.05 1011.53 1011.93 1012.28 1012.63 1013.04 1013.51 1014.06 1014.65 1015.24 1015.78 1016.22 1016.55 1016.78 1016.92 1017.02 1017.13 1017.27 1017.45 1017.66 1017.88 1018.07 1018.21 1018.28
1010.65 1010.10 1009.39 1008.62 1007.92 1007.38 1007.05 1006.96 1007.09 1007.37 1007.72 1008.05 1008.27 1008.35 1008.27 1008.06 1007.79 1007.54 1007.38 1007.37 1007.55 1007.89 1008.38 1008.95 1009.54 1010.11 1010.65 1011.14 1011.60 1012.08 1012.60 1013.16 1013.76 1014.39 1014.99 1015.54 1016.00 1016.36 1016.62 1016.81 1016.97 1017.13 1017.32 1017.54 1017.78 1018.02 1018.24 1018.41 1018.52
1010.78 1010.27 1009.63 1008.98 1008.39 1007.93 1007.63 1007.53 1007.57 1007.73 1007.94 1008.12 1008.23 1008.22 1008.10 1007.89 1007.63 1007.37 1007.18 1007.12 1007.20 1007.42 1007.79 1008.25 1008.79 1009.35 1009.92 1010.49 1011.06 1011.65 1012.26 1012.88 1013.52 1014.15 1014.75 1015.28 1015.75 1016.13 1016.43 1016.69 1016.92 1017.14 1017.39 1017.65 1017.92 1018.20 1018.44 1018.64 1018.77
1010.94 1010.50 1009.99 1009.48 1009.02 1008.67 1008.42 1008.29 1008.24 1008.27 1008.32 1008.36 1008.36 1008.29 1008.15 1007.95 1007.71 1007.47 1007.26 1007.14 1007.12 1007.23 1007.47 1007.83 1008.30 1008.85 1009.45 1010.09 1010.76 1011.43 1012.10 1012.76 1013.40 1014.01 1014.56 1015.07 1015.51 1015.90 1016.25 1016.57 1016.87 1017.16 1017.47 1017.78 1018.08 1018.38 1018.64 1018.86 1019.02
1011.05 1010.70 1010.36 1010.03 1009.76 1009.53 1009.34 1009.19 1009.06 1008.94 1008.84 1008.73 1008.61 1008.48 1008.33 1008.15 1007.95 1007.74 1007.54 1007.38 1007.29 1007.30 1007.44 1007.71 1008.12 1008.66 1009.29 1009.99 1010.73 1011.46 1012.17 1012.83 1013.44 1013.99 1014.48 1014.92 1015.33 1015.72 1016.10 1016.46 1016.83 1017.19 1017.55 1017.90 1018.23 1018.54 1018.81 1019.05 1019.23
1011.02 1010.82 1010.68 1010.59 1010.52 1010.45 1010.35 1010.18 1009.96 1009.70 1009.43 1009.16 1008.93 1008.73 1008.56 1008.41 1008.26 1008.10 1007.93 1007.76 1007.63 1007.58 1007.65 1007.86 1008.24 1008.77 1009.43 1010.18 1010.96 1011.73 1012.45 1013.09 1013.63 1014.10 1014.51 1014.87 1015.23 1015.60 1015.99 1016.39 1016.81 1017.23 1017.63 1018.00 1018.35 1018.66 1018.94 1019.19 1019.40
1010.81 1010.80 1010.91 1011.09 1011.27 1011.38 1011.37 1011.20 1010.89 1010.48 1010.03 1009.59 1009.22 1008.95 1008.76 1008.63 1008.54 1008.44 1008.32 1008.19 1008.06 1007.99 1008.02 1008.20 1008.57 1009.10 1009.79 1010.57 1011.39 1012.18 1012.88 1013.47 1013.95 1014.32 1014.63 1014.91 1015.20 1015.54 1015.92 1016.35 1016.80 1017.25 1017.68 1018.07 1018.42 1018.73 1019.01 1019.26 1019.49
1010.43 1010.66 1011.05 1011.53 1011.96 1012.26 1012.35 1012.18 1011.78 1011.21 1010.57 1009.96 1009.45 1009.07 1008.85 1008.75 1008.72 1008.70 1008.66 1008.59 1008.50 1008.45 1008.48 1008.66 1009.02 1009.56 1010.26 1011.06 1011.89 1012.67 1013.35 1013.89 1014.29 1014.57 1014.79 1014.99 1015.22 1015.51 1015.88 1016.31 1016.78 1017.25 1017.69 1018.09 1018.44 1018.74 1019.01 1019.27 1019.52
1009.94 1010.43 1011.12 1011.88 1012.58 1013.06 1013.23 1013.06 1012.57 1011.85 1011.02 1010.22 1009.56 1009.09 1008.83 1008.74 1008.78 1008.85 1008.90 1008.92 1008.90 1008.89 1008.95 1009.13 1009.49 1010.03 1010.73 1011.52 1012.34 1013.10 1013.75 1014.24 1014.58 1014.79 1014.93 1015.07 1015.24 1015.50 1015.85 1016.28 1016.75 1017.22 1017.66 1018.05 1018.39 1018.68 1018.95 1019.21 1019.49
1009.42 1010.16 1011.14 1012.18 1013.10 1013.74 1013.98 1013.79 1013.21 1012.34 1011.34 1010.38 1009.57 1009.01 1008.72 1008.66 1008.75 1008.92 1009.08 1009.19 1009.25 1009.29 1009.37 1009.56 1009.90 1010.42 1011.08 1011.85 1012.64 1013.37 1013.98 1014.44 1014.73 1014.90 1015.00 1015.10 1015.24 1015.48 1015.80 1016.22 1016.68 1017.15 1017.58 1017.96 1018.29 1018.57 1018.83 1019.10 1019.40
1008.96 1009.94 1011.15 1012.41 1013.51 1014.26 1014.55 1014.33 1013.66 1012.67 1011.53 1010.43 1009.52 1008.89 1008.58 1008.55 1008.71 1008.97 1009.22 1009.43 1009.56 1009.65 1009.74 1009.91 1010.22 1010.68 1011.29 1012.00 1012.74 1013.44 1014.02 1014.45 1014.73 1014.89 1014.99 1015.07 1015.20 1015.42 1015.74 1016.14 1016.58 1017.03 1017.46 1017.83 1018.14 1018.42 1018.68 1018.95 1019.26
1008.61 1009.77 1011.16 1012.57 1013.77 1014.59 1014.89 1014.64 1013.90 1012.82 1011.59 1010.40 1009.43 1008.78 1008.47 1008.48 1008.71 1009.06 1009.40 1009.69 1009.87 1009.99 1010.08 1010.21 1010.46 1010.85 1011.37 1012.00 1012.68 1013.32 1013.88 1014.31 1014.60 1014.78 1014.89 1014.99 1015.13 1015.35 1015.66 1016.04 1016.47 1016.90 1017.30 1017.66 1017.97 1018.24 1018.50 1018.77 1019.09
1008.41 1009.68 1011.15 1012.62 1013.86 1014.67 1014.95 1014.67 1013.90 1012.78 1011.52 1010.32 1009.35 1008.72 1008.45 1008.51 1008.82 1009.24 1009.66 1010.00 1010.22 1010.34 1010.41 1010.49 1010.65 1010.94 1011.37 1011.91 1012.51 1013.10 1013.64 1014.07 1014.39 1014.60 1014.75 1014.89 1015.05 1015.28 1015.58 1015.94 1016.35 1016.76 1017.14 1017.49 1017.78 1018.05 1018.31 1018.59 1018.90
1008.35 1009.63 1011.10 1012.53 1013.72 1014.48 1014.73 1014.42 1013.65 1012.54 1011.32 1010.18 1009.27 1008.71 1008.52 1008.66 1009.03 1009.51 1009.98 1010.36 1010.60 1010.72 1010.75 1010.77 1010.85 1011.04 1011.36 1011.80 1012.32 1012.86 1013.38 1013.82 1014.17 1014.42 1014.62 1014.80 1014.99 1015.23 1015.52 1015.87 1016.25 1016.63 1016.99 1017.32 1017.61 1017.88 1018.14 1018.40 1018.70
1008.38 1009.59 1010.96 1012.26 1013.33 1014.01 1014.19 1013.88 1013.14 1012.11 1011.00 1009.97 1009.19 1008.74 1008.65 1008.86 1009.30 1009.83 1010.34 1010.74 1010.99 1011.09 1011.09 1011.05 1011.06 1011.16 1011.39 1011.74 1012.19 1012.68 1013.18 1013.62 1014.00 1014.30 1014.54 1014.75 1014.97 1015.21 1015.50 1015.82 1016.17 1016.52 1016.86 1017.18 1017.46 1017.73 1017.98 1018.24 1018.51
1008.45 1009.52 1010.69 1011.80 1012.70 1013.24 1013.36 1013.05 1012.38 1011.48 1010.53 1009.67 1009.05 1008.74 1008.75 1009.05 1009.54 1010.10 1010.62 1011.03 1011.28 1011.38 1011.36 1011.30 1011.26 1011.31 1011.47 1011.76 1012.14 1012.60 1013.06 1013.51 1013.90 1014.23 1014.50 1014.74 1014.98 1015.22 1015.49 1015.79 1016.11 1016.44 1016.75 1017.05 1017.33 1017.59 1017.83 1018.08 1018.33
1008.52 1009.37 1010.30 1011.17 1011.85 1012.24 1012.29 1011.99 1011.42 1010.68 1009.91 1009.25 1008.80 1008.63 1008.75 1009.10 1009.62 1010.18 1010.71 1011.12 1011.38 1011.49 1011.49 1011.44 1011.40 1011.43 1011.57 1011.82 1012.16 1012.58 1013.02 1013.45 1013.84 1014.18 1014.47 1014.73 1014.97 1015.21 1015.47 1015.74 1016.03 1016.33 1016.63 1016.91 1017.18 1017.44 1017.68 1017.90 1018.13
Thickness
5831 5828 5824 5812 5789 5770 5767 5788 5804 5805 5807 5817 5822 5815 5802 5793 5784 5777 5800 5806 5801 5796 5792 5788 5786 5784 5782 5781 5780 5778 5777 5776 5775 5774 5772 5771 5769 5768 5766 5765 5763 5762 5761 5760 5759 5758 5757 5756 5755
5832 5828 5816 5797 5773 5756 5768 5795 5804 5810 5815 5822 5819 5814 5804 5797 5802 5799 5800 5801 5800 5795 5791 5788 5785 5783 5781 5779 5778 5777 5776 5774 5773 5772 5771 5770 5768 5767 5765 5764 5762 5761 5760 5759 5758 5757 5756 5754 5753
5831 5827 5803 5784 5771 5765 5779 5804 5810 5819 5824 5821 5811 5811 5804 5797 5802 5799 5801 5801 5797 5792 5789 5786 5783 5781 5780 5777 5776 5775 5774 5773 5772 5771 5770 5768 5767 5765 5764 5763 5761 5760 5759 5757 5757 5755 5754 5753 5752
5826 5812 5797 5778 5773 5790 5799 5810 5817 5817 5818 5819 5810 5799 5802 5809 5807 5805 5802 5798 5792 5789 5787 5785 5782 5779 5778 5776 5774 5773 5772 5771 5770 5769 5768 5767 5765 5764 5762 5761 5760 5758 5757 5756 5755 5754 5753 5752 5751
5821 5799 5780 5770 5782 5803 5816 5821 5823 5814 5809 5810 5808 5791 5789 5803 5808 5804 5799 5795 5790 5785 5784 5782 5781 5778 5776 5774 5773 5772 5771 5769 5769 5767 5766 5765 5763 5762 5761 5759 5758 5756 5755 5754 5753 5752 5751 5750 5750
5803 5790 5769 5764 5786 5807 5817 5825 5823 5812 5807 5808 5804 5789 5783 5797 5798 5796 5795 5791 5788 5784 5780 5778 5777 5776 5774 5773 5771 5770 5769 5768 5767 5766 5764 5763 5761 5760 5759 5757 5756 5754 5753 5752 5751 5750 5749 5748 5748
5795 5782 5771 5778 5788 5799 5814 5825 5819 5810 5805 5805 5806 5784 5779 5787 5793 5792 5789 5786 5783 5781 5777 5774 5773 5773 5772 5771 5770 5768 5767 5766 5765 5764 5762 5761 5759 5758 5757 5755 5754 5752 5751 5749 5748 5747 5746 5746 5746
5808 5786 5776 5779 5786 5794 5818 5824 5822 5814 5806 5813 5808 5784 5773 5781 5788 5787 5782 5779 5776 5775 5773 5770 5769 5769 5769 5768 5767 5766 5765 5764 5763 5762 5760 5759 5757 5756 5754 5753 5751 5750 5749 5747 5746 5745 5744 5744 5744
5814 5777 5765 5779 5789 5798 5817 5816 5816 5819 5810 5806 5804 5798 5790 5787 5783 5778 5772 5769 5768 5768 5768 5767 5765 5765 5765 5764 5764 5763 5762 5762 5761 5760 5759 5757 5755 5754 5752 5750 5749 5748 5746 5745 5743 5742 5742 5742 5742
5799 5770 5780 5801 5807 5806 5812 5811 5810 5803 5795 5792 5793 5794 5792 5785 5779 5773 5768 5764 5762 5761 5762 5763 5762 5762 5762 5762 5761 5760 5760 5759 5758 5757 5757 5755 5753 5752 5750 5748 5747 5745 5744 5743 5741 5740 5740 5740 5739
5800 5788 5802 5812 5818 5816 5811 5810 5813 5798 5786 5790 5788 5787 5785 5779 5774 5769 5766 5764 5762 5760 5759 5759 5759 5759 5758 5759 5758 5757 5757 5757 5756 5755 5754 5753 5751 5749 5748 5746 5744 5743 5742 5740 5739 5738 5737 5737 5737
5803 5807 5814 5816 5823 5819 5814 5812 5806 5802 5798 5803 5800 5793 5783 5776 5772 5769 5764 5762 5760 5758 5757 5757 5757 5756 5756 5756 5755 5755 5754 5754 5754 5753 5752 5751 5749 5747 5745 5744 5742 5741 5740 5738 5737 5735 5735 5734 5734
5802 5806 5816 5820 5821 5820 5817 5809 5805 5801 5805 5802 5796 5789 5781 5775 5770 5766 5763 5760 5758 5756 5754 5753 5754 5754 5754 5754 5753 5752 5752 5752 5752 5752 5751 5750 5747 5745 5743 5742 5740 5739 5738 5736 5735 5733 5732 5732 5732
5804 5808 5813 5816 5818 5819 5810 5804 5799 5795 5801 5794 5788 5781 5778 5774 5768 5762 5758 5756 5755 5755 5753 5753 5753 5753 5753 5753 5753 5752 5751 5751 5751 5750 5749 5748 5746 5744 5741 5740 5739 5738 5736 5735 5734 5732 5731 5730 5730
5810 5799 5801 5809 5813 5812 5806 5789 5791 5798 5796 5787 5782 5778 5774 5771 5766 5762 5759 5756 5755 5754 5753 5752 5752 5753 5752 5752 5751 5750 5749 5749 5749 5748 5747 5746 5744 5742 5740 5738 5737 5736 5735 5734 5733 5731 5730 5729 5728
5795 5783 5775 5797 5807 5810 5794 5771 5790 5798 5792 5782 5779 5774 5769 5766 5763 5761 5758 5755 5754 5753 5750 5751 5752 5750 5750 5750 5749 5748 5747 5747 5746 5746 5745 5743 5743 5742 5740 5738 5736 5735 5734 5732 5731 5729 5727 5726 5725
5770 5760 5766 5785 5804 5804 5790 5774 5789 5794 5788 5780 5778 5771 5766 5761 5758 5758 5757 5755 5753 5751 5750 5748 5748 5746 5746 5747 5746 5746 5745 5745 5744 5743 5742 5742 5741 5740 5739 5737 5735 5735 5733 5732 5730 5728 5726 5724 5723
5753 5758 5766 5774 5795 5797 5783 5777 5785 5787 5784 5778 5775 5770 5763 5758 5755 5757 5756 5753 5751 5749 5747 5745 5744 5743 5744 5744 5742 5742 5741 5741 5742 5741 5740 5740 5739 5739 5737 5736 5734 5733 5731 5729 5728 5726 5725 5724 5722
5770 5765 5764 5779 5797 5790 5780 5775 5778 5781 5777 5772 5768 5765 5760 5755 5754 5754 5752 5749 5747 5746 5742 5742 5741 5741 5741 5739 5738 5736 5736 5737 5738 5738 5738 5738 5738 5737 5736 5735 5733 5732 5730 5728 5727 5726 5723 5721 5722
5772 5763 5766 5779 5794 5786 5774 5770 5777 5778 5775 5774 5769 5763 5758 5753 5748 5748 5747 5746 5745 5742 5740 5739 5738 5738 5739 5738 5738 5738 5736 5735 5735 5735 5735 5736 5736 5736 5735 5733 5731 5730 5728 5726 5726 5725 5721 5720 5720
5771 5767 5771 5773 5782 5782 5769 5756 5763 5771 5774 5772 5771 5767 5761 5755 5749 5746 5745 5743 5742 5740 5738 5738 5737 5737 5737 5736 5736 5735 5732 5731 5730 5730 5731 5733 5734 5734 5733 5732 5730 5729 5727 5725 5724 5723 5721 5717 5718
5763 5784 5784 5779 5763 5748 5757 5730 5750 5761 5761 5764 5763 5762 5759 5756 5752 5747 5745 5742 5741 5740 5740 5738 5737 5736 5735 5735 5735 5732 5729 5726 5727 5729 5730 5731 5732 5733 5732 5731 5730 5728 5727 5725 5724 5723 5721 5718 5715
5777 5790 5784 5775 5759 5743 5743 5731 5739 5753 5749 5755 5760 5762 5760 5757 5753 5748 5746 5745 5742 5741 5739 5738 5736 5735 5734 5735 5735 5732 5729 5728 5728 5728 5728 5728 5730 5731 5731 5730 5729 5728 5726 5725 5723 5721 5720 5718 5715
5791 5781 5768 5754 5739 5721 5732 5727 5730 5743 5752 5757 5761 5762 5759 5757 5755 5750 5748 5745 5742 5740 5739 5738 5735 5734 5734 5734 5733 5732 5729 5728 5726 5725 5725 5726 5727 5728 5729 5729 5728 5726 5725 5723 5722 5720 5718 5716 5714
5781 5752 5725 5719 5709 5713 5732 5729 5734 5759 5767 5767 5765 5764 5763 5759 5755 5750 5747 5744 5741 5739 5738 5737 5735 5733 5733 5734 5733 5732 5731 5729 5727 5726 5725 5725 5725 5726 5727 5728 5726 5725 5724 5722 5721 5718 5716 5715 5712
5770 5753 5721 5707 5703 5711 5726 5725 5745 5769 5775 5776 5774 5769 5765 5760 5756 5752 5750 5747 5744 5741 5739 5737 5735 5733 5733 5733 5732 5732 5731 5730 5728 5728 5728 5727 5727 5727 5727 5727 5725 5724 5722 5721 5719 5716 5714 5713 5711
5763 5753 5752 5727 5718 5708 5714 5730 5751 5770 5772 5772 5771 5766 5763 5760 5757 5754 5751 5749 5746 5743 5740 5738 5736 5734 5734 5733 5732 5731 5731 5730 5729 5729 5729 5729 5728 5728 5727 5725 5723 5722 5721 5719 5717 5714 5712 5711 5709
5772 5761 5738 5720 5705 5700 5711 5720 5731 5752 5759 5764 5764 5764 5763 5762 5759 5756 5753 5751 5748 5746 5742 5740 5737 5735 5735 5734 5734 5734 5733 5732 5731 5730 5729 5729 5728 5728 5725 5723 5721 5720 5718 5716 5714 5711 5710 5708 5705
5757 5750 5736 5721 5716 5701 5696 5717 5760 5760 5763 5762 5764 5766 5764 5763 5761 5758 5756 5754 5751 5747 5743 5740 5738 5736 5735 5735 5734 5734 5733 5732 5732 5730 5730 5729 5728 5726 5724 5722 5720 5718 5716 5714 5711 5709 5707 5705 5702
5757 5746 5733 5714 5711 5711 5704 5723 5773 5770 5767 5765 5764 5767 5768 5767 5765 5762 5759 5755 5751 5747 5744 5742 5740 5738 5737 5736 5735 5734 5733 5732 5731 5730 5729 5729 5726 5725 5723 5720 5718 5716 5714 5711 5709 5706 5705 5702 5699